Find GPS III SV04

NORAD ID: 46826 Int'l Des: 2020-078 Owner: SMC Country: US Constellation: GPS operational
MEOCIRCULARGNSS

リアルタイム位置

3D地球を読み込み中...

GPS III SV04について

説明を読み込み中...

次回通過

Passes for default location (London). Set your location on the main map for personalized predictions.

高度履歴

Loading altitude history...

軌道要素

1 46826U 20078A 26118.42633653 -.00000028 00000-0 00000+0 0 9993
2 46826 53.9877 212.7963 0071179 205.8633 165.9479 2.00564988 40512
Epoch: Apr 28, 2026 • Age: 82 hours

現在のステータス

高度 20236.1 km
速度 3.87 km/s
衛星直下点 -39.15°S, 18.65°E
打ち上げ日 Nov 5, 2020
運用期間 5.4 years
タイプ navigation

技術仕様

分類 Payload
質量 4400.00 kg
乾燥質量 2160.00 kg
総質量 4400.00 kg
長さ 3.40 m
直径 1.80 m
スパン 14.00 m
形状 Box + 2 pan
製造者 LMSSD
バスタイプ A2100
フェーズステータス In Orbit
所有者/国 SMC/US

Most Searched